Location: University of Redlands
(34.0627°N, 117.1632°W)
Time: 18:21:12
(UTC-08:00)

ISS - Pass Details

Date: 01 December 2017
Orbit: 402 x 407 km, 51.6° (Epoch: 10 December)

Event Time Altitude Azimuth Distance (km) Brightness Sun altitude
Rises 17:29:19 0° 274° (W) 2,321 1.4 -10.4°
Reaches altitude 10° 17:32:26 10° 306° (NW) 1,463 -0.5 -11.0°
Maximum altitude 17:33:50 12° 332° (NNW) 1,339 -1.1 -11.3°
Drops below altitude 10° 17:35:15 10° 358° (N) 1,464 -1.2 -11.6°
Enters shadow 17:36:34 - 15° (NNE) 1,764 -0.9 -11.8°
